Temp
-7 -7 -7 -8 -8 -8 -8 -8 -7 -7 -7 -7 -7 -7 -7 -7 -7 -7 -7 -7 -6 -6 -6 -7 -7 -7 -7 -7 -7 -7 -7 -7 -8 -8 -8 -8 -8 -8 -8 -8 -8 -8 -8 -8 -8 -8 -7 -7 -7 -7 -7 -7 -7 -7 -7 -7 -8 -8 -8 -8 -8 -8 -8
-7 -7 -7 -8 -8 -8 -8 -8 -7 -7 -7 -7 -7 -6 -6 -7 -7 -7 -7 -7 -6 -7 -7 -7 -7 -7 -7 -7 -7 -7 -7 -7 -8 -8 -8 -8 -8 -8 -8 -8 -8 -8 -8 -8 -8 -8 -8 -8 -8 -7 -7 -7 -8 -8 -8 -8 -8 -8 -8 -8 -8 -8 -8
-7 -7 -7 -7 -7 -8 -8 -8 -8 -7 -7 -7 -7 -6 -6 -7 -7 -7 -7 -7 -7 -7 -7 -7 -7 -7 -7 -7 -7 -7 -7 -7 -7 -8 -8 -8 -8 -8 -8 -8 -8 -8 -8 -8 -8 -8 -8 -8 -8 -8 -8 -8 -8 -8 -8 -8 -8 -8 -8 -8 -8 -8 -8
-7 -7 -7 -7 -7 -7 -7 -8 -8 -7 -7 -7 -7 -7 -6 -7 -7 -7 -7 -7 -7 -7 -7 -7 -7 -7 -7 -7 -7 -7 -7 -7 -7 -7 -8 -8 -8 -8 -8 -8 -8 -8 -8 -8 -8 -8 -8 -8 -8 -8 -8 -8 -8 -8 -8 -8 -8 -8 -8 -8 -8 -8 -8
-7 -7 -7 -7 -7 -7 -7 -7 -8 -7 -7 -7 -7 -7 -7 -7 -7 -7 -7 -7 -7 -7 -7 -7 -7 -7 -7 -7 -7 -7 -7 -7 -7 -7 -8 -8 -8 -8 -8 -8 -8 -8 -8 -8 -8 -9 -8 -8 -8 -8 -8 -8 -8 -8 -8 -8 -8 -8 -8 -8 -8 -8 -8
-7 -7 -7 -7 -7 -7 -7 -7 -7 -7 -7 -7 -7 -7 -7 -7 -7 -7 -7 -7 -7 -7 -7 -7 -7 -7 -7 -7 -7 -7 -8 -8 -8 -8 -8 -8 -8 -8 -8 -8 -8 -8 -8 -8 -8 -8 -8 -8 -8 -8 -8 -8 -8 -8 -8 -8 -8 -8 -8 -8 -8 -9 -9
-7 -7 -7 -8 -8 -7 -7 -7 -7 -7 -8 -7 -7 -7 -7 -7 -7 -7 -7 -7 -7 -7 -7 -7 -7 -7 -7 -8 -8 -8 -8 -8 -8 -8 -8 -8 -8 -8 -8 -8 -8 -8 -8 -8 -8 -8 -8 -8 -8 -8 -8 -8 -8 -8 -8 -9 -9 -9 -9 -9 -9 -9 -9
-7 -7 -7 -8 -7 -7 -7 -7 -7 -7 -7 -8 -7 -7 -7 -7 -7 -7 -7 -7 -7 -7 -7 -7 -7 -7 -7 -7 -7 -7 -8 -8 -8 -8 -8 -8 -8 -8 -8 -8 -8 -8 -8 -8 -8 -9 -9 -8 -8 -8 -8 -8 -8 -8 -8 -9 -9 -9 -9 -9 -9 -9 -9
-7 -7 -8 -7 -7 -7 -7 -7 -7 -7 -7 -7 -7 -7 -8 -7 -8 -8 -7 -7 -7 -7 -7 -7 -7 -7 -7 -7 -7 -7 -8 -8 -8 -8 -8 -9 -9 -9 -8 -8 -8 -8 -9 -9 -9 -9 -9 -9 -8 -8 -8 -8 -8 -8 -9 -9 -9 -9 -9 -9 -9 -9 -9
-7 -7 -7 -7 -7 -7 -7 -7 -7 -7 -7 -7 -7 -7 -7 -7 -8 -8 -7 -7 -7 -7 -7 -7 -7 -7 -7 -7 -7 -8 -8 -7 -7 -8 -8 -9 -9 -9 -9 -9 -9 -9 -9 -9 -9 -9 -9 -9 -9 -9 -8 -8 -8 -9 -9 -9 -9 -9 -9 -9 -9 -9 -9
-7 -7 -7 -7 -7 -7 -7 -7 -7 -7 -7 -7 -7 -7 -7 -7 -7 -7 -7 -7 -7 -7 -7 -7 -7 -7 -7 -7 -8 -8 -7 -7 -8 -8 -9 -9 -9 -9 -9 -9 -9 -9 -9 -10 -10 -9 -9 -9 -9 -9 -9 -9 -9 -9 -9 -9 -9 -9 -9 -9 -9 -9 -9
-7 -7 -7 -7 -8 -8 -7 -7 -7 -7 -8 -8 -7 -7 -7 -7 -7 -7 -7 -7 -7 -7 -7 -7 -7 -7 -7 -8 -8 -7 -7 -7 -8 -8 -9 -9 -9 -9 -9 -9 -10 -10 -9 -9 -10 -9 -9 -9 -9 -9 -9 -9 -9 -9 -10 -10 -10 -9 -9 -9 -9 -9 -9
-7 -7 -7 -8 -8 -7 -8 -8 -8 -8 -8 -8 -8 -8 -8 -8 -8 -8 -7 -7 -7 -7 -7 -7 -7 -7 -7 -7 -8 -7 -7 -8 -8 -8 -8 -9 -9 -9 -9 -9 -10 -10 -10 -10 -10 -10 -9 -9 -9 -9 -9 -9 -9 -10 -10 -10 -10 -10 -9 -9 -9 -9 -9
-8 -7 -7 -8 -8 -7 -8 -8 -8 -8 -8 -8 -8 -8 -8 -8 -8 -8 -8 -8 -8 -7 -7 -7 -7 -7 -7 -7 -7 -7 -7 -8 -8 -8 -8 -8 -9 -9 -9 -9 -10 -10 -10 -10 -10 -10 -9 -9 -9 -10 -10 -10 -10 -10 -10 -10 -10 -10 -10 -9 -9 -9 -10
-8 -8 -8 -8 -8 -8 -8 -8 -8 -8 -8 -8 -8 -8 -8 -8 -8 -8 -8 -8 -8 -8 -8 -8 -7 -7 -7 -7 -7 -7 -8 -8 -8 -8 -8 -8 -8 -9 -9 -9 -9 -10 -10 -10 -10 -10 -10 -10 -10 -10 -10 -10 -10 -10 -10 -10 -10 -10 -10 -10 -9 -10 -10
-8 -8 -8 -8 -8 -8 -8 -8 -8 -8 -8 -8 -8 -8 -8 -8 -8 -8 -8 -8 -8 -8 -8 -8 -7 -7 -7 -7 -7 -8 -8 -8 -8 -8 -8 -8 -8 -9 -9 -9 -9 -10 -10 -10 -10 -10 -10 -10 -10 -10 -10 -10 -10 -10 -10 -10 -10 -10 -10 -10 -10 -10 -10
-8 -8 -8 -8 -8 -8 -8 -8 -8 -8 -8 -8 -8 -8 -8 -8 -8 -8 -8 -8 -8 -8 -8 -7 -8 -8 -7 -7 -8 -8 -8 -8 -8 -8 -8 -8 -8 -9 -9 -9 -9 -9 -9 -10 -10 -10 -10 -10 -10 -10 -10 -10 -11 -10 -10 -10 -10 -10 -10 -10 -10 -10 -10
-8 -8 -8 -8 -8 -8 -8 -8 -8 -8 -8 -7 -8 -8 -8 -7 -7 -7 -7 -8 -8 -8 -8 -8 -8 -8 -7 -7 -7 -7 -7 -8 -8 -8 -8 -8 -8 -9 -9 -9 -9 -9 -9 -10 -10 -10 -10 -10 -10 -10 -11 -11 -10 -10 -10 -10 -10 -10 -10 -10 -10 -10 -11
-8 -8 -8 -8 -8 -8 -8 -8 -8 -8 -8 -8 -8 -8 -8 -8 -8 -7 -7 -8 -8 -8 -8 -8 -8 -8 -7 -7 -7 -7 -7 -8 -8 -8 -8 -8 -8 -8 -9 -9 -9 -9 -9 -10 -10 -11 -11 -10 -11 -11 -11 -11 -10 -10 -10 -10 -10 -11 -11 -11 -11 -11 -11
-8 -8 -8 -8 -8 -8 -8 -8 -8 -8 -8 -8 -8 -8 -8 -8 -8 -8 -8 -8 -8 -8 -8 -8 -8 -8 -8 -7 -7 -7 -7 -8 -8 -8 -8 -8 -8 -8 -9 -9 -9 -9 -10 -10 -11 -11 -11 -11 -11 -11 -11 -11 -11 -11 -11 -11 -11 -11 -11 -11 -11 -11 -11
-8 -8 -8 -8 -8 -8 -8 -8 -8 -8 -8 -8 -8 -8 -8 -8 -8 -8 -8 -8 -8 -8 -8 -8 -8 -8 -8 -7 -7 -7 -7 -7 -7 -8 -8 -8 -9 -9 -9 -9 -9 -10 -10 -11 -11 -11 -11 -11 -11 -11 -11 -11 -11 -11 -11 -11 -11 -11 -12 -12 -12 -12 -12
-8 -8 -8 -8 -8 -8 -9 -9 -8 -8 -9 -8 -8 -8 -8 -8 -8 -8 -8 -8 -8 -8 -8 -8 -8 -8 -8 -8 -7 -7 -7 -7 -7 -7 -8 -8 -9 -9 -10 -10 -10 -10 -11 -11 -11 -11 -11 -11 -11 -11 -12 -11 -11 -11 -11 -12 -12 -12 -12 -12 -12 -12 -12
-8 -8 -8 -8 -9 -9 -9 -9 -9 -9 -9 -9 -8 -8 -8 -8 -8 -8 -8 -8 -8 -8 -8 -8 -8 -8 -8 -8 -8 -8 -7 -7 -7 -7 -8 -9 -9 -9 -10 -10 -10 -10 -11 -11 -11 -12 -12 -12 -12 -12 -12 -11 -11 -11 -12 -12 -12 -12 -12 -12 -12 -12 -12
-8 -8 -8 -9 -9 -9 -9 -9 -9 -9 -9 -9 -9 -9 -8 -9 -9 -9 -8 -8 -8 -8 -8 -8 -8 -8 -8 -8 -8 -8 -8 -8 -7 -7 -8 -9 -10 -10 -10 -10 -11 -11 -11 -11 -12 -12 -12 -12 -12 -12 -11 -11 -12 -12 -12 -12 -12 -12 -12 -12 -12 -12 -12
-8 -8 -8 -8 -9 -9 -9 -9 -9 -9 -9 -9 -9 -9 -9 -9 -9 -9 -9 -8 -8 -8 -8 -8 -8 -8 -8 -8 -8 -8 -8 -8 -8 -8 -9 -9 -9 -10 -10 -10 -11 -11 -11 -12 -12 -12 -12 -12 -12 -11 -11 -12 -12 -12 -12 -12 -12 -12 -12 -12 -12 -12 -12
-9 -9 -9 -9 -9 -9 -9 -9 -9 -9 -9 -9 -9 -9 -9 -9 -9 -9 -9 -8 -8 -8 -8 -8 -8 -8 -8 -8 -8 -8 -8 -8 -8 -9 -9 -10 -10 -10 -10 -10 -11 -11 -12 -12 -12 -12 -12 -12 -12 -12 -12 -12 -12 -12 -12 -12 -12 -12 -12 -12 -12 -12 -12
-9 -9 -9 -9 -9 -10 -10 -10 -10 -10 -9 -9 -9 -9 -9 -9 -9 -9 -9 -8 -8 -8 -8 -8 -8 -8 -8 -8 -8 -8 -8 -9 -9 -9 -10 -10 -10 -10 -10 -11 -12 -12 -12 -12 -12 -12 -12 -11 -12 -12 -12 -12 -12 -13 -13 -12 -12 -12 -12 -12 -12 -12 -12
-9 -9 -9 -10 -10 -10 -10 -10 -10 -9 -9 -9 -9 -9 -9 -9 -9 -9 -8 -8 -8 -8 -8 -8 -8 -8 -8 -8 -8 -8 -8 -9 -9 -10 -10 -10 -10 -10 -11 -11 -12 -12 -12 -12 -12 -12 -12 -11 -12 -12 -12 -12 -12 -13 -13 -12 -12 -12 -12 -12 -12 -12 -12
-9 -9 -9 -10 -10 -9 -9 -10 -9 -9 -9 -9 -9 -9 -9 -9 -9 -9 -8 -8 -8 -8 -8 -8 -8 -8 -8 -8 -8 -8 -9 -9 -9 -10 -10 -11 -10 -10 -11 -11 -12 -12 -12 -12 -12 -12 -12 -12 -12 -12 -12 -12 -13 -13 -13 -12 -12 -12 -12 -12 -12 -12 -13
-9 -9 -9 -9 -9 -9 -9 -9 -10 -9 -9 -9 -9 -9 -9 -9 -9 -9 -8 -9 -9 -9 -8 -8 -8 -8 -8 -8 -9 -9 -9 -9 -9 -9 -10 -11 -11 -11 -11 -11 -12 -12 -12 -12 -12 -12 -12 -12 -12 -12 -12 -12 -12 -12 -12 -12 -12 -12 -12 -13 -13 -13 -13
-9 -9 -9 -9 -9 -9 -9 -10 -10 -10 -9 -9 -9 -9 -9 -9 -9 -9 -9 -9 -9 -9 -9 -8 -8 -8 -9 -9 -9 -9 -9 -9 -9 -9 -10 -10 -11 -11 -11 -12 -12 -12 -12 -12 -12 -12 -12 -13 -12 -11 -12 -12 -12 -12 -12 -13 -13 -13 -13 -13 -13 -13 -14
-10 -10 -10 -10 -10 -10 -10 -10 -10 -10 -10 -10 -9 -9 -9 -9 -9 -9 -9 -9 -9 -9 -9 -9 -9 -9 -9 -9 -9 -9 -9 -9 -10 -10 -10 -11 -11 -11 -11 -12 -12 -12 -12 -12 -12 -12 -12 -12 -12 -12 -12 -12 -12 -12 -13 -13 -13 -13 -13 -13 -14 -14 -14
-10 -10 -10 -10 -10 -10 -10 -10 -10 -10 -10 -10 -9 -9 -9 -9 -9 -9 -9 -9 -9 -9 -9 -9 -9 -9 -9 -9 -10 -10 -10 -10 -10 -11 -10 -11 -11 -11 -11 -12 -12 -12 -12 -12 -12 -12 -12 -12 -12 -12 -12 -12 -13 -13 -13 -13 -13 -13 -14 -14 -14 -14 -14
-10 -10 -10 -10 -10 -10 -10 -10 -10 -10 -10 -10 -10 -9 -9 -9 -9 -9 -9 -9 -9 -9 -9 -9 -9 -9 -9 -10 -10 -10 -10 -11 -11 -11 -11 -11 -11 -11 -11 -12 -11 -12 -12 -12 -12 -12 -12 -12 -13 -13 -13 -13 -13 -13 -13 -14 -14 -14 -14 -14 -14 -14 -14
-10 -10 -10 -10 -10 -10 -10 -10 -10 -10 -10 -10 -10 -9 -9 -9 -9 -9 -9 -9 -9 -9 -10 -10 -10 -10 -10 -10 -10 -10 -11 -11 -11 -11 -11 -12 -12 -12 -12 -12 -12 -12 -12 -12 -12 -13 -13 -13 -13 -13 -13 -13 -14 -14 -14 -14 -14 -14 -14 -14 -14 -14 -14
-10 -10 -10 -10 -10 -10 -10 -10 -10 -10 -10 -10 -10 -10 -9 -9 -9 -9 -9 -9 -9 -9 -10 -10 -10 -10 -10 -10 -10 -11 -11 -11 -11 -11 -12 -12 -12 -12 -12 -12 -12 -12 -13 -13 -13 -13 -13 -13 -13 -13 -14 -14 -14 -14 -14 -14 -14 -14 -14 -14 -14 -14 -14
-10 -10 -10 -11 -11 -11 -11 -10 -10 -10 -10 -10 -10 -10 -9 -10 -10 -10 -10 -9 -9 -10 -10 -10 -10 -10 -10 -10 -11 -11 -11 -11 -11 -11 -11 -12 -12 -12 -12 -12 -12 -13 -13 -13 -13 -13 -13 -13 -13 -14 -14 -14 -14 -14 -14 -14 -14 -14 -14 -14 -14 -15 -15
-10 -10 -10 -11 -11 -11 -10 -10 -10 -10 -10 -10 -10 -10 -10 -10 -10 -10 -10 -10 -10 -10 -10 -10 -10 -10 -10 -11 -11 -11 -11 -11 -11 -11 -12 -12 -12 -12 -12 -12 -13 -13 -13 -13 -13 -13 -14 -14 -14 -14 -14 -14 -14 -14 -14 -14 -14 -14 -15 -15 -15 -15 -15
Height
5905 5905 5904 5904 5903 5903 5903 5903 5903 5903 5902 5903 5903 5902 5902 5902 5902 5903 5903 5902 5903 5903 5903 5902 5901 5900 5900 5899 5898 5898 5896 5895 5894 5893 5892 5890 5889 5888 5887 5887 5886 5885 5883 5882 5881 5881 5880 5879 5878 5877 5875 5874 5873 5872 5871 5870 5869 5868 5867 5865 5864 5863 5861
5904 5903 5903 5903 5902 5902 5902 5902 5901 5901 5901 5900 5900 5900 5900 5900 5900 5900 5900 5900 5901 5901 5901 5900 5899 5898 5897 5897 5896 5895 5894 5893 5892 5891 5890 5889 5888 5886 5885 5884 5883 5882 5880 5879 5878 5878 5877 5876 5875 5874 5873 5871 5870 5869 5868 5867 5866 5865 5864 5862 5861 5859 5858
5903 5902 5902 5902 5901 5901 5900 5900 5899 5899 5898 5898 5897 5898 5898 5898 5898 5898 5898 5899 5899 5899 5898 5897 5896 5896 5895 5894 5893 5892 5891 5890 5889 5889 5888 5887 5886 5884 5883 5881 5880 5879 5877 5876 5875 5875 5874 5873 5872 5871 5870 5869 5868 5866 5866 5865 5864 5863 5861 5860 5858 5856 5854
5901 5901 5901 5901 5900 5900 5899 5898 5897 5896 5895 5895 5894 5895 5895 5895 5895 5896 5896 5897 5897 5896 5895 5894 5893 5893 5892 5891 5890 5889 5888 5887 5886 5885 5885 5884 5883 5882 5880 5879 5877 5876 5874 5873 5872 5872 5871 5870 5869 5868 5867 5866 5865 5864 5863 5862 5861 5860 5858 5857 5855 5853 5850
5899 5900 5900 5900 5899 5898 5898 5897 5896 5895 5893 5892 5892 5892 5892 5893 5893 5893 5894 5894 5894 5893 5892 5891 5891 5890 5889 5888 5887 5886 5884 5883 5882 5882 5882 5881 5880 5879 5877 5875 5874 5873 5871 5871 5870 5869 5868 5867 5866 5865 5864 5863 5862 5860 5859 5858 5858 5856 5855 5853 5851 5849 5846
5897 5898 5898 5898 5897 5896 5896 5896 5895 5893 5892 5891 5890 5890 5890 5891 5891 5891 5891 5891 5891 5891 5890 5889 5888 5887 5885 5884 5883 5882 5881 5879 5879 5879 5878 5877 5876 5875 5873 5872 5871 5870 5869 5868 5868 5867 5865 5864 5863 5862 5860 5859 5858 5857 5856 5855 5854 5853 5851 5850 5848 5845 5842
5895 5895 5896 5895 5895 5894 5894 5893 5892 5892 5890 5889 5889 5889 5889 5889 5889 5888 5888 5889 5889 5888 5887 5886 5885 5884 5882 5880 5880 5879 5878 5877 5876 5875 5875 5873 5872 5871 5870 5869 5868 5867 5867 5866 5865 5864 5863 5861 5860 5859 5857 5856 5855 5853 5852 5851 5850 5849 5848 5846 5843 5841 5838
5893 5893 5893 5893 5893 5892 5891 5891 5890 5889 5888 5888 5887 5887 5887 5887 5886 5886 5886 5886 5886 5885 5884 5883 5882 5880 5878 5877 5876 5875 5874 5873 5871 5871 5870 5868 5867 5866 5866 5866 5866 5865 5864 5863 5862 5860 5859 5858 5857 5856 5854 5852 5851 5849 5848 5847 5846 5845 5843 5841 5838 5836 5834
5891 5891 5891 5891 5891 5890 5889 5889 5888 5887 5887 5886 5886 5886 5886 5885 5885 5884 5884 5884 5883 5883 5882 5880 5878 5876 5874 5873 5872 5871 5869 5867 5866 5865 5865 5864 5863 5863 5863 5863 5862 5861 5860 5859 5858 5857 5856 5855 5854 5852 5850 5848 5847 5845 5844 5843 5842 5840 5838 5836 5833 5831 5830
5888 5888 5888 5889 5888 5888 5887 5887 5886 5886 5886 5885 5885 5885 5885 5884 5884 5883 5883 5882 5882 5880 5878 5876 5874 5873 5871 5870 5868 5866 5863 5861 5861 5862 5862 5860 5859 5859 5860 5860 5858 5856 5856 5855 5854 5853 5852 5851 5850 5848 5846 5844 5843 5841 5840 5839 5838 5836 5834 5832 5830 5828 5826
5885 5885 5885 5885 5885 5885 5885 5884 5884 5884 5884 5884 5884 5883 5883 5883 5882 5882 5882 5881 5880 5878 5876 5873 5871 5870 5869 5866 5863 5859 5856 5856 5861 5863 5860 5857 5856 5856 5856 5855 5854 5853 5852 5851 5850 5849 5848 5847 5846 5845 5843 5841 5839 5838 5837 5836 5834 5832 5830 5828 5826 5825 5823
5881 5881 5881 5881 5881 5882 5882 5882 5881 5881 5881 5881 5881 5880 5880 5880 5880 5880 5880 5879 5878 5876 5874 5872 5869 5868 5866 5862 5858 5853 5852 5856 5859 5859 5855 5852 5851 5850 5850 5849 5849 5848 5847 5846 5846 5845 5844 5843 5842 5841 5839 5837 5836 5835 5834 5832 5830 5828 5826 5824 5823 5821 5818
5878 5878 5878 5878 5878 5879 5879 5879 5879 5878 5878 5878 5878 5877 5877 5877 5878 5878 5878 5877 5875 5873 5872 5869 5866 5865 5862 5858 5854 5850 5851 5855 5855 5853 5851 5849 5845 5844 5844 5844 5844 5844 5843 5842 5841 5841 5840 5839 5838 5837 5835 5834 5832 5832 5830 5829 5827 5825 5822 5820 5818 5815 5813
5874 5875 5875 5875 5875 5876 5876 5876 5876 5876 5876 5875 5875 5875 5875 5875 5875 5875 5874 5874 5872 5871 5869 5865 5862 5861 5859 5856 5852 5850 5850 5850 5849 5847 5847 5845 5841 5839 5840 5840 5840 5840 5840 5839 5838 5837 5837 5836 5834 5833 5832 5830 5829 5828 5827 5825 5823 5820 5817 5815 5812 5810 5808
5871 5871 5872 5872 5872 5872 5873 5873 5873 5873 5873 5872 5872 5872 5871 5871 5871 5871 5870 5869 5868 5867 5864 5861 5858 5857 5856 5854 5851 5850 5847 5843 5842 5843 5843 5841 5839 5837 5837 5837 5836 5836 5837 5836 5835 5834 5833 5832 5831 5829 5828 5827 5825 5824 5822 5820 5818 5815 5812 5810 5807 5805 5803
5867 5868 5868 5869 5869 5869 5869 5870 5870 5870 5870 5869 5868 5868 5868 5867 5866 5866 5865 5863 5862 5861 5859 5857 5855 5854 5853 5851 5847 5846 5843 5838 5837 5839 5839 5837 5835 5834 5833 5833 5832 5832 5833 5832 5831 5830 5829 5828 5826 5825 5824 5822 5821 5819 5817 5815 5812 5810 5807 5805 5803 5801 5799
5864 5865 5864 5865 5865 5865 5866 5866 5866 5866 5866 5865 5865 5864 5864 5863 5862 5860 5859 5858 5856 5854 5853 5852 5851 5850 5849 5846 5843 5841 5838 5833 5834 5836 5835 5833 5831 5830 5829 5830 5830 5829 5829 5827 5826 5825 5824 5823 5821 5820 5819 5818 5816 5814 5812 5810 5807 5805 5802 5800 5799 5797 5795
5861 5861 5861 5861 5861 5862 5862 5862 5862 5862 5862 5862 5861 5860 5859 5857 5856 5855 5854 5853 5851 5849 5847 5846 5846 5845 5843 5841 5839 5837 5834 5831 5832 5833 5832 5830 5828 5826 5825 5826 5826 5825 5824 5822 5821 5820 5819 5818 5816 5815 5814 5813 5811 5809 5807 5805 5802 5800 5798 5796 5794 5792 5790
5856 5857 5857 5858 5858 5858 5858 5858 5858 5858 5858 5857 5856 5855 5854 5853 5852 5851 5850 5848 5846 5844 5842 5841 5841 5840 5838 5836 5834 5832 5830 5829 5829 5829 5828 5826 5823 5820 5820 5821 5821 5820 5818 5816 5815 5814 5814 5813 5812 5811 5810 5809 5807 5805 5803 5801 5798 5795 5793 5791 5790 5788 5785
5853 5854 5854 5854 5855 5855 5855 5854 5854 5854 5853 5852 5852 5851 5850 5849 5848 5847 5845 5843 5841 5839 5838 5837 5837 5836 5834 5832 5830 5828 5826 5825 5824 5823 5821 5820 5817 5814 5814 5815 5814 5813 5811 5810 5809 5809 5808 5808 5807 5807 5806 5804 5803 5801 5799 5796 5793 5791 5789 5787 5786 5783 5781
5850 5851 5851 5851 5851 5851 5851 5850 5850 5849 5848 5847 5847 5846 5845 5844 5843 5842 5841 5839 5838 5836 5834 5833 5833 5832 5829 5827 5825 5824 5822 5820 5818 5816 5815 5812 5810 5809 5808 5808 5807 5806 5805 5805 5804 5804 5804 5804 5803 5803 5802 5801 5798 5796 5793 5791 5789 5787 5785 5784 5781 5778 5776
5847 5847 5847 5847 5847 5847 5846 5846 5846 5845 5843 5843 5842 5841 5840 5840 5840 5839 5837 5836 5834 5832 5831 5829 5828 5827 5826 5823 5820 5818 5817 5816 5814 5811 5808 5806 5806 5806 5805 5803 5802 5801 5801 5800 5800 5800 5799 5799 5800 5799 5798 5796 5793 5790 5788 5787 5785 5783 5782 5779 5776 5773 5770
5843 5843 5843 5843 5842 5842 5841 5841 5841 5840 5839 5839 5839 5838 5837 5836 5835 5835 5834 5832 5830 5828 5827 5825 5824 5822 5821 5819 5816 5814 5813 5812 5810 5807 5804 5803 5803 5803 5801 5799 5798 5797 5796 5796 5795 5795 5795 5796 5795 5794 5793 5790 5788 5785 5784 5782 5781 5779 5776 5773 5770 5767 5764
5838 5838 5838 5837 5837 5836 5836 5836 5836 5835 5835 5835 5835 5835 5834 5832 5831 5830 5829 5827 5825 5824 5822 5821 5819 5818 5816 5814 5812 5810 5809 5808 5806 5803 5800 5799 5799 5798 5796 5795 5794 5793 5792 5791 5791 5791 5791 5791 5790 5788 5787 5784 5781 5779 5778 5777 5775 5773 5770 5767 5764 5760 5757
5834 5833 5833 5832 5832 5832 5831 5831 5831 5831 5832 5832 5831 5830 5830 5828 5827 5825 5824 5822 5820 5819 5817 5815 5814 5813 5811 5809 5807 5805 5804 5803 5801 5798 5796 5796 5795 5793 5791 5790 5789 5788 5787 5786 5786 5786 5786 5786 5785 5783 5781 5778 5774 5772 5771 5771 5769 5766 5763 5759 5757 5754 5750
5828 5828 5828 5827 5827 5827 5827 5827 5827 5827 5828 5827 5827 5826 5825 5824 5822 5820 5819 5817 5815 5813 5811 5810 5809 5808 5806 5804 5803 5801 5799 5798 5797 5794 5792 5792 5790 5789 5787 5785 5784 5783 5782 5782 5782 5782 5782 5781 5779 5778 5775 5771 5768 5766 5766 5764 5762 5759 5756 5753 5751 5748 5745
5823 5823 5823 5823 5822 5822 5822 5823 5823 5823 5823 5822 5822 5821 5820 5818 5817 5815 5814 5812 5810 5808 5807 5805 5804 5803 5802 5800 5798 5796 5794 5793 5792 5790 5788 5786 5784 5783 5781 5780 5779 5779 5778 5778 5778 5778 5777 5776 5774 5772 5768 5765 5763 5762 5761 5759 5756 5753 5750 5748 5746 5743 5740
5818 5818 5818 5818 5817 5817 5818 5818 5818 5818 5817 5817 5816 5815 5814 5813 5812 5811 5809 5807 5806 5804 5802 5801 5799 5798 5797 5795 5793 5791 5789 5788 5787 5785 5783 5781 5780 5778 5776 5775 5774 5774 5774 5774 5774 5773 5772 5771 5768 5766 5764 5762 5759 5757 5755 5753 5750 5747 5745 5743 5741 5737 5734
5814 5813 5813 5813 5812 5812 5813 5813 5813 5813 5812 5812 5811 5810 5809 5808 5807 5806 5804 5803 5802 5800 5798 5796 5794 5793 5791 5789 5787 5786 5784 5783 5781 5780 5778 5777 5775 5774 5771 5770 5770 5771 5770 5769 5769 5768 5767 5766 5764 5762 5760 5758 5755 5751 5749 5747 5745 5743 5741 5738 5735 5732 5728
5809 5809 5809 5809 5808 5807 5807 5807 5807 5807 5806 5806 5805 5804 5804 5803 5802 5801 5800 5798 5797 5795 5793 5791 5790 5788 5785 5783 5781 5780 5778 5777 5776 5774 5772 5771 5770 5769 5767 5766 5767 5767 5767 5766 5764 5762 5761 5760 5760 5759 5755 5753 5750 5747 5745 5743 5740 5737 5735 5732 5729 5725 5722
5804 5804 5804 5804 5803 5802 5801 5801 5801 5801 5800 5800 5799 5798 5798 5798 5797 5796 5795 5793 5791 5790 5788 5786 5784 5782 5780 5778 5776 5774 5773 5771 5770 5768 5766 5764 5765 5765 5764 5763 5763 5763 5763 5762 5760 5758 5757 5755 5755 5755 5751 5747 5745 5743 5739 5737 5734 5731 5728 5725 5722 5719 5715
5797 5797 5797 5797 5797 5796 5795 5795 5795 5795 5794 5794 5793 5792 5792 5792 5792 5791 5789 5787 5786 5784 5782 5780 5779 5777 5775 5773 5771 5769 5767 5766 5764 5763 5762 5760 5760 5760 5760 5759 5759 5758 5757 5757 5755 5754 5752 5750 5749 5749 5746 5742 5739 5737 5733 5730 5727 5725 5722 5719 5716 5712 5709
5791 5790 5790 5791 5791 5790 5790 5789 5789 5789 5788 5788 5787 5787 5787 5786 5785 5784 5783 5781 5780 5778 5776 5774 5773 5771 5770 5769 5766 5763 5762 5761 5759 5757 5758 5757 5756 5755 5755 5755 5755 5753 5752 5751 5749 5747 5746 5744 5742 5741 5738 5736 5733 5730 5727 5724 5722 5719 5716 5712 5709 5706 5703
5785 5785 5785 5785 5785 5784 5784 5784 5783 5783 5783 5783 5782 5782 5781 5780 5779 5778 5777 5775 5774 5773 5771 5768 5767 5766 5765 5763 5761 5758 5755 5755 5754 5754 5754 5754 5753 5753 5753 5752 5751 5749 5747 5745 5744 5742 5740 5738 5736 5733 5731 5728 5726 5723 5721 5718 5715 5712 5709 5706 5703 5701 5699
5780 5780 5780 5779 5779 5778 5778 5778 5778 5778 5778 5778 5778 5777 5776 5775 5773 5773 5772 5770 5769 5767 5765 5762 5760 5760 5759 5757 5756 5753 5751 5750 5751 5752 5752 5751 5751 5750 5749 5747 5745 5744 5742 5740 5738 5737 5734 5732 5729 5726 5723 5721 5718 5716 5714 5711 5708 5706 5703 5700 5698 5697 5695
5774 5775 5775 5774 5774 5773 5773 5774 5773 5773 5773 5773 5773 5772 5770 5769 5768 5768 5767 5765 5764 5762 5759 5756 5755 5755 5754 5753 5752 5751 5750 5749 5749 5748 5747 5746 5745 5743 5742 5740 5738 5737 5735 5733 5732 5730 5728 5725 5722 5719 5717 5714 5712 5710 5708 5706 5703 5701 5699 5696 5694 5693 5691
5769 5769 5769 5769 5769 5769 5769 5769 5768 5768 5767 5768 5767 5766 5765 5764 5764 5763 5761 5760 5759 5756 5753 5751 5751 5751 5750 5750 5748 5747 5746 5745 5744 5742 5741 5739 5738 5736 5735 5733 5732 5730 5729 5727 5725 5723 5721 5718 5715 5713 5711 5709 5707 5705 5703 5701 5698 5696 5694 5692 5691 5689 5687
5763 5764 5764 5763 5763 5764 5764 5764 5763 5762 5762 5762 5762 5761 5760 5759 5758 5756 5755 5753 5752 5750 5748 5747 5746 5745 5744 5744 5742 5741 5740 5739 5737 5736 5734 5733 5731 5730 5728 5727 5725 5724 5722 5720 5718 5716 5714 5712 5710 5708 5706 5704 5702 5700 5698 5696 5694 5692 5690 5688 5686 5684 5682
Wind_Speed
13 14 14 13 13 11 10 12 15 18 19 20 20 21 22 22 21 21 21 22 21 20 20 20 21 21 22 23 24 24 24 24 23 22 23 25 26 26 26 26 26 27 28 28 28 28 28 28 29 28 28 27 26 25 25 26 27 28 28 29 30 32 33
10 10 10 10 10 10 12 13 16 20 23 25 25 23 22 22 21 22 22 22 20 19 19 19 19 20 21 21 22 22 23 22 22 22 23 24 25 26 27 27 28 27 28 28 28 27 27 28 28 28 27 25 25 24 25 27 28 28 29 30 31 33 34
8 8 8 9 11 13 14 13 15 17 20 23 25 24 23 22 21 21 21 19 18 18 18 18 18 19 19 21 21 22 22 23 23 23 24 25 25 26 26 27 28 27 27 28 27 26 26 27 28 27 26 25 24 24 25 27 28 29 29 31 32 33 34
10 11 11 11 13 15 14 14 17 18 18 18 19 21 21 20 20 19 18 17 17 18 18 18 19 19 20 21 22 23 24 25 25 24 24 25 26 26 25 26 27 27 27 28 27 26 26 27 27 27 26 25 24 24 26 27 29 30 31 32 34 34 34
14 15 14 13 15 16 15 15 17 17 17 16 16 16 16 17 17 16 15 16 17 18 19 20 21 21 22 23 24 25 27 27 27 25 25 25 26 27 26 26 27 27 28 28 28 27 27 27 26 26 26 26 26 25 26 28 30 31 32 34 35 35 35
18 18 16 14 16 18 17 16 15 14 14 14 15 16 15 15 15 15 16 16 17 18 20 22 23 24 25 26 27 27 29 30 29 27 26 26 27 28 28 28 28 28 28 29 28 28 28 28 27 27 27 27 27 27 27 29 31 33 34 35 36 36 37
20 20 17 16 19 19 18 16 15 14 14 13 13 14 15 16 16 17 17 17 18 19 21 23 24 26 28 30 30 30 30 32 32 30 28 28 29 29 29 30 30 29 29 29 30 30 30 29 29 28 28 28 28 28 28 30 32 34 35 36 36 37 38
21 19 17 18 20 19 17 17 17 17 15 13 12 12 13 15 16 17 18 19 20 21 22 24 27 29 31 32 33 33 32 34 35 33 31 31 31 31 30 29 30 30 30 29 30 31 30 30 31 31 29 29 28 29 30 32 34 35 36 37 37 38 38
20 18 18 20 19 16 15 15 16 16 14 12 12 12 13 14 16 17 19 20 22 23 24 27 29 31 33 34 35 35 35 37 37 36 34 34 33 32 30 29 29 30 29 28 29 30 30 31 32 32 31 30 30 30 32 33 35 36 37 37 38 39 39
19 19 19 17 15 14 15 15 14 13 11 11 12 13 14 15 16 17 19 20 22 24 27 30 32 33 34 35 36 37 39 40 39 37 36 37 36 34 30 27 29 31 29 28 30 30 31 32 33 33 32 31 31 32 33 34 36 37 37 37 38 39 40
20 20 19 16 16 16 16 16 15 13 12 13 14 15 16 16 16 17 18 20 23 26 29 31 33 34 35 37 38 40 42 42 39 37 39 40 39 37 33 29 29 30 30 30 31 32 32 32 33 33 32 32 33 34 34 35 36 37 37 37 37 38 39
20 21 18 17 19 18 16 16 15 16 16 17 16 17 17 17 17 18 19 22 24 27 30 33 35 36 36 38 41 44 46 43 39 38 41 42 41 40 36 31 29 30 31 31 31 31 31 32 32 33 33 33 34 35 36 36 37 37 37 37 36 37 39
21 21 19 21 22 20 18 17 18 20 21 21 20 20 20 19 20 22 24 26 28 30 32 35 36 37 38 40 43 46 46 44 42 42 41 40 40 41 38 33 30 31 33 32 30 28 29 30 31 32 33 34 36 36 37 38 38 38 38 38 37 39 40
23 23 22 23 24 23 21 20 21 22 23 24 23 23 23 23 24 26 27 28 30 32 34 37 39 39 39 42 45 46 45 45 46 45 42 41 41 41 39 36 34 33 34 32 27 25 26 27 29 31 33 35 36 37 37 38 39 39 39 39 39 40 41
24 24 24 25 26 25 24 23 23 24 24 23 22 22 23 25 26 27 27 29 32 34 36 39 41 41 40 42 44 43 45 47 48 45 43 43 43 41 39 38 37 36 36 32 27 23 24 26 28 30 32 34 36 37 37 38 39 39 38 38 40 41 42
25 26 27 28 28 27 26 26 26 25 23 22 22 24 26 27 29 29 30 33 36 38 39 40 41 40 40 41 43 44 46 49 47 42 40 41 41 41 40 40 39 37 37 36 32 28 28 29 28 29 31 33 35 36 37 37 37 36 37 38 40 41 43
27 29 30 31 31 30 29 30 30 27 23 23 25 28 29 30 31 32 34 38 42 43 43 41 39 38 38 40 42 44 45 44 41 39 39 40 40 40 38 36 35 35 39 43 40 36 36 35 30 29 31 33 34 35 35 34 35 37 38 38 39 41 43
30 32 33 33 33 32 33 34 33 29 25 26 28 31 32 33 34 35 37 41 43 44 44 42 40 38 39 40 41 41 41 40 39 38 38 38 39 39 35 32 30 33 36 38 38 37 37 34 30 29 31 32 34 34 33 34 36 37 37 38 39 41 42
32 33 33 34 34 34 35 37 36 32 30 31 33 34 35 35 35 36 38 41 42 43 44 43 41 40 40 41 43 44 40 36 36 37 37 37 37 35 32 31 34 37 34 32 33 33 33 31 29 30 31 32 34 34 34 35 36 37 38 39 39 41 43
35 34 33 34 35 36 37 39 38 34 34 37 38 38 38 35 34 36 39 41 43 43 44 43 42 41 41 42 43 40 34 32 35 36 37 36 35 31 29 31 36 37 33 30 31 31 30 28 28 30 32 33 35 35 35 36 37 39 39 38 39 42 44
36 34 34 36 37 37 38 40 39 37 38 41 42 42 41 37 36 39 41 43 43 44 44 44 44 43 43 43 42 35 30 33 36 36 36 37 35 31 28 30 32 31 29 28 29 28 27 26 28 31 32 34 36 36 37 37 39 39 38 38 41 45 45
37 36 37 38 38 38 38 39 39 39 41 43 43 44 43 39 38 41 43 44 44 44 45 45 45 44 43 43 42 37 34 36 37 37 38 37 33 28 27 29 28 27 27 27 26 25 25 26 29 31 33 34 36 37 38 38 37 36 37 41 45 45 45
39 40 40 38 38 38 39 38 37 39 42 43 43 44 43 42 43 46 47 46 45 45 45 44 45 44 42 42 42 39 35 35 36 38 38 35 29 27 29 29 27 26 26 26 24 24 25 27 30 32 33 34 36 39 39 36 34 36 41 45 46 45 46
39 40 40 40 39 40 40 37 37 40 44 44 44 45 45 47 50 51 49 47 45 45 45 45 45 44 43 43 43 40 37 36 36 37 37 33 29 29 31 31 26 26 27 26 24 24 26 28 31 31 32 34 39 41 36 32 34 40 44 46 46 47 48
40 41 42 43 44 43 41 39 40 44 45 45 46 47 47 50 52 50 47 45 45 45 46 46 46 45 45 44 43 42 41 39 38 37 34 31 29 32 35 34 30 29 29 28 26 26 29 32 32 31 33 37 39 36 32 33 39 44 45 46 47 49 49
40 42 43 45 45 43 41 42 45 46 46 47 49 49 51 53 51 47 45 45 45 47 48 48 47 46 45 44 43 43 42 39 37 34 32 30 31 34 37 36 33 32 33 32 30 28 29 31 31 33 40 39 33 30 33 39 44 45 46 48 49 50 49
43 43 44 44 44 43 44 45 45 46 47 48 49 50 51 51 47 45 45 46 47 48 48 47 46 45 43 42 42 42 40 37 35 33 32 34 35 36 37 35 33 33 35 33 29 26 27 30 32 38 41 34 28 32 39 43 44 45 47 49 49 50 49
47 46 45 44 45 46 48 48 48 49 50 49 49 49 47 44 43 43 45 47 48 48 46 45 44 43 42 42 42 41 40 37 35 35 35 36 37 39 38 34 32 33 31 27 25 28 33 35 37 41 38 30 32 40 43 43 46 47 47 49 49 49 47
50 49 49 49 50 52 54 55 55 55 54 52 49 47 44 42 43 44 46 48 48 46 44 42 42 41 41 42 42 41 40 39 38 38 38 38 39 39 35 30 29 28 25 24 28 35 39 38 40 44 40 35 37 42 43 45 48 47 47 48 48 46 45
51 53 55 56 58 61 59 55 52 51 51 49 47 44 43 44 46 46 47 46 44 42 41 41 41 41 41 42 42 42 41 41 41 41 40 37 34 32 29 27 26 27 28 32 37 40 40 39 41 43 40 37 39 42 44 47 47 46 47 47 46 44 42
53 55 57 58 60 59 52 43 41 43 45 45 45 44 44 45 45 45 43 42 41 40 40 40 40 40 41 42 43 43 44 44 42 40 37 32 28 26 28 28 29 32 36 37 37 38 40 41 41 39 38 40 43 45 45 46 45 46 47 46 44 42 40
54 56 56 53 51 47 40 36 37 40 41 42 44 44 44 43 42 40 39 38 39 39 39 39 40 41 42 43 44 45 44 42 39 35 31 29 28 29 31 32 34 38 39 38 38 41 42 42 41 41 41 43 45 45 45 45 46 46 46 45 43 40 38
54 53 51 48 43 39 36 36 37 39 39 40 41 41 41 40 38 38 37 37 37 38 38 39 41 41 42 43 44 45 43 39 37 34 32 32 34 35 34 34 37 39 39 39 42 45 45 44 43 43 43 43 44 44 44 45 45 46 46 44 41 39 38
47 44 42 40 37 35 34 35 36 37 38 39 40 40 39 38 38 38 38 38 38 38 39 41 42 42 43 44 44 43 40 37 35 34 33 35 37 37 35 36 38 40 42 44 47 48 47 46 45 44 43 43 43 43 43 45 46 46 45 43 41 39 39
40 38 37 36 35 34 35 36 37 39 39 39 39 39 39 38 39 38 38 39 39 39 40 42 42 41 40 37 33 30 30 31 32 33 35 37 38 39 40 42 44 45 46 48 49 48 47 46 45 44 43 42 42 43 44 46 46 45 43 42 40 39 39
35 35 36 36 36 36 36 37 38 38 38 38 38 38 39 39 39 39 39 40 40 40 43 44 42 38 34 30 28 29 32 34 37 40 42 42 43 45 46 47 47 48 48 49 49 49 48 47 46 44 43 43 44 45 45 45 45 44 43 41 40 39 38
36 36 36 35 35 35 35 36 36 37 38 38 39 39 40 40 40 40 41 41 41 42 44 43 41 39 37 37 39 41 41 41 43 45 46 46 47 47 46 47 47 48 48 48 49 49 49 47 45 43 43 44 45 45 45 45 44 43 42 41 39 39 38
35 34 32 31 32 33 34 35 36 38 39 40 40 40 40 41 41 42 42 43 43 44 45 45 44 43 43 44 45 45 45 45 46 46 46 46 45 45 45 45 45 46 47 49 49 48 47 45 43 43 44 44 45 45 45 44 43 42 41 40 38 38 37
Wind_Direction
304 308 311 315 315 309 290 270 263 263 265 266 267 267 268 271 272 273 273 275 278 283 288 291 292 292 292 292 293 293 293 290 286 285 286 287 288 288 288 288 290 292 295 297 300 302 303 303 303 303 304 305 306 308 310 310 309 308 307 308 308 309 309
304 308 315 316 311 310 302 288 277 274 273 273 272 270 269 269 271 272 272 274 279 286 291 292 292 293 294 295 295 294 293 290 286 283 284 285 287 287 288 289 290 292 293 295 298 299 301 301 302 302 303 303 305 307 309 307 306 305 305 306 306 307 308
300 309 311 306 309 314 314 311 300 289 282 275 271 268 267 267 269 272 275 279 284 288 290 292 292 293 294 295 296 295 294 292 289 287 286 286 286 286 287 287 288 289 290 292 294 295 296 298 300 301 301 301 303 305 306 304 302 301 302 304 304 305 307
291 300 297 298 310 314 317 320 313 304 296 284 273 266 265 266 268 274 279 281 283 285 288 291 293 294 294 294 294 293 291 290 289 289 288 287 286 285 284 283 282 284 287 290 291 291 292 295 298 299 299 300 302 303 303 302 300 300 301 302 303 305 308
284 291 292 299 311 315 316 315 311 309 304 292 281 272 268 268 270 273 275 274 277 282 287 293 296 297 295 292 291 291 289 287 288 289 289 287 286 285 283 280 279 282 286 289 288 287 288 292 296 298 299 300 301 302 302 301 301 301 302 302 304 306 309
281 288 293 300 309 313 312 309 308 310 308 298 283 274 270 272 273 272 271 272 277 283 290 296 299 297 294 291 291 290 287 287 289 289 288 287 284 283 283 282 281 282 285 288 288 285 285 289 294 297 298 299 300 301 303 303 303 302 302 302 304 307 310
275 284 291 299 306 309 307 307 308 308 308 299 282 272 269 270 272 273 275 279 283 288 293 297 296 294 292 290 290 290 287 286 288 287 285 283 281 280 281 283 283 284 286 289 288 286 285 288 293 296 297 297 299 302 304 304 302 301 301 302 304 309 311
271 280 290 297 300 304 306 309 310 309 306 294 280 274 271 269 272 276 280 285 288 291 295 295 293 292 291 290 292 291 287 284 283 282 280 278 277 277 278 281 284 284 285 287 287 286 285 288 293 295 295 297 300 304 305 304 302 301 301 303 306 309 311
270 280 288 292 296 304 308 308 310 311 304 286 274 271 270 270 273 276 280 285 288 293 294 293 292 292 292 295 295 291 285 281 278 276 277 276 274 274 277 280 282 281 282 284 284 283 285 289 293 295 296 299 303 305 305 304 302 302 302 304 307 308 308
273 279 283 291 302 307 304 302 306 313 308 289 276 267 264 266 268 273 280 285 289 293 293 292 293 294 297 298 294 288 283 280 275 273 274 274 271 272 275 276 277 277 278 281 283 283 286 291 295 297 298 301 303 304 304 303 302 302 302 304 305 307 307
275 279 283 300 312 309 307 304 301 304 305 300 289 274 268 268 270 276 282 286 291 293 293 294 296 299 301 299 292 286 282 279 278 277 277 275 272 273 273 271 272 275 277 280 282 284 288 294 297 298 299 301 301 301 302 302 302 302 302 303 304 306 307
279 282 290 307 311 311 316 314 307 308 309 305 295 282 275 274 277 283 286 288 291 292 295 298 299 301 301 296 290 287 283 279 280 280 276 274 274 274 273 270 268 271 274 278 281 284 289 295 297 297 298 298 298 300 302 302 302 300 299 300 302 306 309
282 285 294 302 304 306 313 312 309 311 311 304 296 289 285 284 288 292 292 292 293 295 298 300 299 299 298 293 291 294 290 281 279 280 275 271 271 272 273 273 273 273 275 277 279 283 290 293 293 293 294 295 296 298 301 301 299 296 295 296 300 307 311
281 286 293 297 299 302 307 309 307 308 307 301 293 290 290 291 293 294 294 294 296 298 300 299 298 298 297 297 299 303 299 287 281 281 278 274 273 273 273 275 278 279 278 277 277 283 291 291 289 290 291 292 295 297 298 297 294 292 292 294 298 306 311
282 289 294 298 300 301 304 306 306 305 303 297 292 293 295 293 292 293 295 299 301 301 299 297 298 299 301 303 304 305 302 293 285 282 281 279 278 275 275 277 280 280 278 277 277 285 296 296 290 289 291 292 295 297 296 295 293 292 293 295 299 305 309
286 291 295 298 299 300 302 303 304 303 301 298 299 302 301 295 293 293 298 302 305 304 301 299 300 301 303 305 304 303 301 295 289 286 286 286 284 281 280 279 278 278 278 278 278 283 297 304 297 291 293 294 296 297 296 296 296 295 296 298 301 304 307
287 289 291 293 294 297 300 302 303 300 297 299 301 301 298 295 294 296 300 303 305 305 304 303 303 302 303 304 304 305 303 295 290 291 291 291 289 287 284 280 279 283 284 284 281 279 289 302 301 294 295 297 297 298 298 299 299 299 299 301 304 306 309
283 283 285 288 292 296 298 301 301 298 296 300 301 301 299 298 298 299 301 303 303 303 303 304 305 305 305 304 305 307 304 294 289 297 303 303 301 294 283 278 288 298 296 288 281 277 284 295 297 295 295 296 297 298 299 301 301 301 302 304 307 309 310
277 278 283 287 290 293 296 298 298 297 300 305 305 304 304 301 299 299 300 302 303 303 303 304 305 306 306 306 307 307 306 299 297 304 309 309 309 303 288 282 293 302 297 283 275 277 285 291 292 293 295 296 296 298 301 303 302 302 304 306 307 309 309
273 277 283 286 288 291 294 295 295 296 302 306 305 303 302 301 300 301 303 304 303 302 302 303 304 305 304 305 306 305 305 305 305 306 305 302 301 300 293 289 293 294 288 275 271 277 285 289 292 295 296 296 297 299 302 303 303 303 304 304 306 308 309
274 278 281 283 286 289 290 290 291 294 300 304 305 303 300 299 301 304 305 304 302 301 301 301 302 302 302 303 305 303 301 303 304 304 303 301 296 292 291 293 292 288 281 274 274 281 288 293 297 298 296 296 298 300 302 302 303 303 302 303 306 309 309
275 277 278 280 283 285 284 285 287 291 296 301 303 302 300 299 301 305 304 301 300 299 299 299 300 301 302 303 302 302 302 304 305 304 302 300 296 290 291 295 294 288 282 280 281 288 294 299 298 295 294 297 299 300 302 301 301 301 302 305 308 310 310
276 278 278 277 277 276 277 279 281 286 292 297 298 299 299 299 300 302 301 298 296 297 297 298 299 300 301 301 300 300 303 306 306 304 300 298 294 289 291 296 293 286 281 281 285 291 295 296 294 293 296 299 300 301 300 297 297 301 306 309 311 311 311
274 274 272 270 269 270 272 275 277 282 288 292 293 294 297 299 299 299 297 294 294 295 296 296 297 298 298 299 299 301 305 306 305 300 296 296 294 289 292 295 289 281 279 281 285 288 288 289 291 294 301 304 303 301 298 295 298 305 309 311 312 313 314
271 271 270 270 270 269 270 273 278 282 287 290 291 292 293 298 299 296 292 290 292 293 294 294 295 295 296 298 300 303 305 308 308 301 294 292 288 287 293 295 290 285 283 284 283 281 283 287 289 297 306 307 302 298 296 299 305 309 311 313 314 314 314
270 271 273 274 273 270 271 276 280 283 286 287 289 291 292 295 295 290 286 288 290 291 293 293 293 294 296 298 301 304 306 310 311 302 292 288 289 291 295 296 293 291 289 288 286 284 289 293 293 303 312 307 298 298 303 306 309 311 313 314 314 313 314
268 269 270 271 273 273 274 277 279 282 285 286 289 292 293 291 287 282 282 285 288 290 291 292 293 294 296 299 301 303 306 310 310 302 291 288 291 295 296 293 290 291 291 289 286 287 298 301 300 309 315 307 297 304 309 309 311 312 313 313 312 312 313
265 268 269 270 271 273 274 276 278 280 283 286 289 291 290 284 279 278 280 283 286 288 290 290 292 294 295 297 298 300 303 305 306 301 293 288 289 294 295 290 287 289 289 285 280 287 300 306 307 311 313 302 297 304 309 311 312 312 311 310 310 311 313
264 267 269 270 271 273 274 275 276 278 281 285 286 285 283 280 278 278 280 281 284 286 287 288 290 292 293 294 296 297 300 301 302 299 293 286 286 292 293 290 288 288 284 280 284 293 302 306 307 307 304 297 298 304 308 309 309 308 308 309 310 312 314
266 268 269 271 274 274 273 273 274 276 280 282 281 279 279 279 279 278 279 280 282 283 285 286 288 290 291 293 295 297 300 300 300 300 295 287 285 288 288 288 288 285 283 286 292 297 301 302 303 303 300 297 300 303 305 306 306 306 308 309 311 313 315
272 272 273 273 274 273 271 271 273 276 278 279 279 278 279 279 279 278 278 278 279 281 283 285 287 289 291 294 296 298 299 299 299 299 294 285 281 282 281 281 284 286 289 292 294 297 299 299 300 301 298 296 299 302 304 305 306 307 308 310 312 315 315
275 274 274 274 272 271 270 272 274 275 276 277 278 278 279 278 278 278 277 278 279 281 284 286 288 290 292 294 295 297 298 297 296 293 282 273 276 280 277 275 280 287 292 293 294 297 299 299 299 299 296 295 299 302 304 304 305 306 308 311 314 316 316
274 273 271 269 270 271 272 273 273 273 274 276 277 278 278 278 279 279 280 280 281 283 284 286 288 291 293 295 296 296 295 292 290 284 273 269 278 282 278 278 284 288 289 290 294 298 300 299 299 298 297 297 300 302 302 303 305 307 309 313 316 316 315
271 268 265 264 266 270 271 272 272 273 274 274 275 276 277 278 279 281 281 282 283 285 287 288 290 294 296 297 296 296 293 289 285 281 278 280 286 287 286 287 289 288 287 289 294 297 298 298 298 297 297 299 300 301 303 304 306 309 312 314 315 314 311
268 265 264 265 267 268 270 271 273 274 274 274 274 274 276 277 279 280 281 282 284 286 289 290 293 297 301 301 300 298 294 291 288 287 287 289 291 291 290 289 289 288 290 292 295 296 296 297 297 298 299 300 301 303 305 306 307 310 312 313 312 309 306
268 268 268 268 269 270 271 273 273 273 273 273 273 274 276 277 279 280 281 282 284 287 289 290 293 296 297 297 296 295 292 290 289 289 289 289 291 291 291 291 292 293 294 295 296 296 296 297 298 297 298 300 302 304 305 305 307 309 311 310 307 303 301
271 271 270 269 269 270 271 272 272 272 273 273 274 275 277 278 278 279 280 282 285 287 288 289 290 290 287 285 286 288 289 289 289 288 289 290 292 293 293 294 294 294 296 298 299 298 297 297 295 295 298 300 301 302 302 303 306 308 308 305 301 298 296
273 273 272 271 270 271 271 271 271 272 273 274 274 275 277 278 279 280 282 284 286 287 287 288 289 289 286 284 285 286 286 288 288 288 289 291 292 292 292 293 295 297 299 300 299 296 295 294 293 295 297 298 298 299 299 301 305 306 303 300 296 293 293